Weather Roundup
Issued by NWS

Home | Current Version | Previous Version | Text Only | Print | Product List | Glossary On
Versions: 1 2 3 4 5 6 7 8 9 10 11 12 13 14 15 16 17 18 19 20 21 22 23 24 25 26 27 28 29 30 31 32 33 34 35 36 37 38 39 40 41 42 43 44 45 46 47 48 49 50
000
NZUS93 KARX 291459
HRRWXR

CURRENT HOURLY OBSERVATIONS ACROSS
MUCH OF THE UPPER MISSISSIPPI VALLEY
NATIONAL WEATHER SERVICE LA CROSSE WI
1000 AM CDT SUN MAY 29 2016


...SOUTHEAST MINNESOTA...


CITY           SKY/WX    TMP DP  RH WIND       PRES   REMARKS
ROCHESTER      PTSUNNY   67  61  81 W16       29.97S
ROCHESTER/MAYO PTSUNNY   66  59  77 W13G25    29.97R
WINONA         CLOUDY    70  61  73 W7        29.94S
AUSTIN         SUNNY     68  57  68 NW12G18   29.99S
ALBERT LEA     SUNNY     68  61  77 W7        30.00R
DODGE CENTER   MOSUNNY   68  61  77 W18       29.98R
PRESTON        PTSUNNY   66  58  74 W15G21    29.99S
OWATONNA       MOSUNNY   68  61  77 W16       29.98S
FARIBAULT      MOSUNNY   70  61  73 W9G17     29.97R
$$

...ELSEWHERE IN MINNESOTA...


CITY           SKY/WX    TMP DP  RH WIND       PRES   REMARKS
MINNEAPOLIS    PTSUNNY   68  58  70 W12       29.93R
INTNL FALLS    LGT RAIN  56  54  93 NW10      29.83R FOG
DULUTH         CLOUDY    62  57  83 NW13G22   29.83R
RED WING       CLOUDY    66  61  82 W13       29.92S
REDWOOD FALLS  SUNNY     69  58  67 W14       29.97R
MANKATO        SUNNY     68  57  68 W14       29.98S
WORTHINGTON    SUNNY     68  60  75 W17       30.03S
FAIRMONT       SUNNY     70  59  68 W18       30.00S
$$

...SOUTHWEST WISCONSIN...


CITY           SKY/WX    TMP DP  RH WIND       PRES   REMARKS
LA CROSSE      CLOUDY    70  60  70 W10       29.93S
PRAIRIE DU CHI PTSUNNY   69  58  67 W8        29.98R
BOSCOBEL       PTSUNNY   71  61  70 W10       29.97S
LONE ROCK      PTSUNNY   69  60  73 W13       29.96R
PLATTEVILLE    PTSUNNY   68  62  81 W15       30.00R
FORT MC COY    CLOUDY    67  60  80 W8        29.94R
MAUSTON-NEW LI PTSUNNY   68  60  76 W12G17    29.92S
VIROQUA        CLOUDY    65  59  80 W10G17    29.96S
WIS DELLS      CLOUDY    67  59  73 W14G21    29.93S
$$

...ELSEWHERE IN WISCONSIN...


CITY           SKY/WX    TMP DP  RH WIND       PRES   REMARKS
MILWAUKEE      PTSUNNY   72  60  66 SW15      29.95S
MADISON        PTSUNNY   70  60  70 W12G18    29.95R
GREEN BAY      CLOUDY    69  62  78 SW12G22   29.87S
EAU CLAIRE     CLOUDY    64  61  90 SW7       29.89S
BLACK RVR FLS  CLOUDY    66  62  86 W9        29.92R
MEDFORD        CLOUDY    62  60  93 W10G16    29.88S
WAUSAU         CLOUDY    67  61  81 W13       29.86S
WIS RAPIDS     CLOUDY    67  60  78 W9        29.91R
MARSHFIELD     CLOUDY    65  59  81 W15       29.89S
RICE LAKE      CLOUDY    63  58  82 W9        29.90R
$$

...NORTHEAST IOWA...


CITY           SKY/WX    TMP DP  RH WIND       PRES   REMARKS
WATERLOO       MOSUNNY   70  60  70 W14       30.02R
DUBUQUE        PTSUNNY   69  60  73 W15G23    30.02R
DECORAH        PTSUNNY   68  61  77 W9G16     29.98R
MASON CITY     SUNNY     69  61  75 W17       30.04R
CHARLES CITY   MOSUNNY   68  63  83 W14       30.02R
OELWEIN        MOSUNNY   68  63  83 W16       30.03R
$$

...ELSEWHERE IN IOWA...


CITY           SKY/WX    TMP DP  RH WIND       PRES   REMARKS
DES MOINES     MOSUNNY   70  58  65 W10       30.08R
IOWA CITY      MOSUNNY   71  61  70 W15G21    30.06S
FORT DODGE     SUNNY     70  57  64 W12       30.07R
MARSHALLTOWN   SUNNY     69  61  75 W8        30.05S
CEDAR RAPIDS   MOSUNNY   70  63  78 W13       30.04S
$$

...NORTHERN ILLINOIS...


CITY           SKY/WX    TMP DP  RH WIND       PRES   REMARKS
CHICAGO-OHARE  MOSUNNY   74  61  63 SW14G23   29.99S
CHICAGO-MIDWAY MOSUNNY   77  60  55 SW20G26   29.99F
MOLINE         MOSUNNY   72  60  66 W5        30.04R
ROCKFORD       CLOUDY    68  59  73 SW9       30.04R
PEORIA         SUNNY     75  60  59 W12       30.06R
$$

NOTE: "FAIR" INDICATES FEW OR NO CLOUDS BELOW 12,000 FEET WITH NO
SIGNIFICANT WEATHER AND/OR OBSTRUCTIONS TO VISIBILITY. WIND
SPEEDS ARE IN MILES-PER-HOUR.




USA.gov is the U.S. government's official web portal to all federal, state and local government web resources and services.